INSAT-4B                
1 30793U 07007A   19261.56862528 -.00000180  00000-0  00000+0 0  9996
2 30793   0.0303 112.1878 0001188 124.4879  53.9721  1.00081568 45859
SKYNET 5A               
1 30794U 07007B   19260.85886152 -.00000275  00000-0  00000-0 0  9993
2 30794   0.0687 355.0738 0003591 185.2514 220.5458  1.00269693 45989
ARIANE 5 R/B            
1 30795U 07007C   19260.85752061  .00001079  00000-0  27198-3 0  9997
2 30795   4.2451  96.0068 7100668 233.6921  38.8801  2.51266133109495